Regional Weather Roundup
Issued by NWS

Home | Current Version | Previous Version | Text Only | Print | Product List | Glossary Off
Versions: 1 2 3 4 5 6 7 8 9 10 11 12 13 14 15 16 17 18 19 20 21 22 23 24 25 26 27 28 29 30 31 32 33 34 35 36 37 38 39 40 41 42 43 44 45 46 47 48 49 50

000
ASUS45 KCYS 190110
RWRWY

WYOMING REGIONAL WEATHER ROUNDUP
NATIONAL WEATHER SERVICE CHEYENNE WY
700 PM MDT THU SEP 18 2014

NOTE:  "FAIR" INDICATES FEW OR NO CLOUDS BELOW 12,000 FEET
WITH NO SIGNIFICANT WEATHER AND/OR OBSTRUCTIONS TO VISIBILITY.

WYZ001-190200-
YELLOWSTONE NATIONAL PARK

CITY           SKY/WX    TMP DP  RH WIND       PRES   REMARKS
LK YELLOWSTONE   N/A     52  50  93 CALM      30.10R
W YELLOWSTONE  NOT AVBL

$$
WYZ002>013-054>058-071-098>099-190200-
NORTHERN WYOMING

CITY           SKY/WX    TMP DP  RH WIND       PRES   REMARKS
JACKSON        CLOUDY    57  55  94 SW7       30.05
CODY             N/A    N/A N/A N/A MISG        N/A
GREYBULL       TSTM      74  52  46 VRB7      29.77R
WORLAND        CLOUDY    73  49  42 N3        29.78R
SHERIDAN       CLOUDY    70  54  56 NW12      29.81R
BUFFALO        CLOUDY    70  48  45 W5        29.86F
GILLETTE       PTCLDY    71  49  45 NE8       29.80F
HULETT         FAIR      73  50  43 MISG      29.82
NEWCASTLE      FAIR      79  41  25 E6        29.77

$$
WYZ014>020-022>026-101>103-190200-
CENTRAL WYOMING

CITY           SKY/WX    TMP DP  RH WIND       PRES   REMARKS
BIG PINEY      MOCLDY    69  42  37 W9        30.00R
PINEDALE       MOCLDY    70  36  28 W8        30.01R
DUBOIS         FAIR      63  41  45 NW8       30.02R
LANDER         PTCLDY    81  37  20 W10       29.84R
RIVERTON       PTCLDY    81  36  19 SW10      29.84R
CASPER         CLEAR     76  31  19 CALM      29.86S
DOUGLAS        CLEAR     83  38  20 CALM      29.84F

$$
WYZ021-027>030-104>119-190200-
SOUTHERN WYOMING

CITY           SKY/WX    TMP DP  RH WIND       PRES   REMARKS
EVANSTON       PTCLDY    75  38  26 W13       30.00S
KEMMERER       PTCLDY   N/A N/A N/A W10       30.02R
FORT BRIDGER   FAIR      77  38  24 W10       30.02S
ROCK SPRINGS   CLEAR     76  33  21 S20G28    29.97R
DIXON          FAIR      74  44  33 CALM      30.02S
RAWLINS        CLEAR     76  26  15 SW10      30.01S
SARATOGA       FAIR      72  36  26 W6        30.04S
LARAMIE        CLEAR     70  31  23 SE14      30.05S
CHEYENNE       CLEAR     77  33  20 S9        29.99S
TORRINGTON     CLEAR     79  50  36 E12       29.81F
PINE BLUFFS    FAIR      77  37  24 SE9       29.93S

$$



USA.gov is the U.S. government's official web portal to all federal, state and local government web resources and services.